This is the latest recevied weather packets stored in our database for station/object KD9DOE. If no packets are shown the sender has not sent any weather packets the latest 10 day(s).
| Time | Temp. | Humidity | Pressure | Rain* | Wind** | Luminosity | Snow |
|---|---|---|---|---|---|---|---|
| 1777642467 | 5.56° C | 71% | 1016.6 hPa | 0 mm | - | 162 W/m² | - |
| 1777642163 | 6.11° C | 71% | 1016.7 hPa | 0 mm | - | 98 W/m² | - |
| 1777641861 | 5.56° C | 74% | 1016.8 hPa | 0 mm | - | 107 W/m² | - |
| 1777641561 | 5.56° C | 76% | 1016.8 hPa | 0 mm | - | 132 W/m² | - |
| 1777641261 | 5° C | 77% | 1016.8 hPa | 0 mm | - | 97 W/m² | - |
| 1777640957 | 5° C | 76% | 1016.8 hPa | 0 mm | - | 74 W/m² | - |
| 1777640655 | 5.56° C | 76% | 1016.8 hPa | 0 mm | - | 103 W/m² | - |
| 1777640350 | 5.56° C | 77% | 1016.8 hPa | 0 mm | - | 114 W/m² | - |
| 1777640048 | 5° C | 78% | 1016.6 hPa | 0 mm | - | 142 W/m² | - |
| 1777639744 | 5.56° C | 78% | 1016.9 hPa | 0 mm | - | 113 W/m² | - |
| 1777639443 | 5° C | 79% | 1016.6 hPa | 0 mm | - | 136 W/m² | - |
| 1777639143 | 5° C | 81% | 1016.7 hPa | 0 mm | - | 138 W/m² | - |
| 1777638840 | 4.44° C | 82% | 1016.8 hPa | 0 mm | - | 140 W/m² | - |
| 1777638536 | 3.89° C | 85% | 1016.8 hPa | 0 mm | - | 129 W/m² | - |
| 1777638233 | 3.33° C | 88% | 1016.8 hPa | 0 mm | - | 72 W/m² | - |
| 1777637929 | 2.78° C | 90% | 1016.8 hPa | 0 mm | - | 69 W/m² | - |
| 1777637625 | 2.78° C | 92% | 1016.7 hPa | 0 mm | - | 37 W/m² | - |
| 1777637322 | 2.22° C | 94% | 1016.6 hPa | 0 mm | - | 34 W/m² | - |
| 1777637019 | 2.22° C | 95% | 1016.6 hPa | 0 mm | - | 32 W/m² | - |
| 1777636714 | 2.22° C | 95% | 1016.6 hPa | 0 mm | - | 31 W/m² | - |
| 1777636411 | 1.67° C | 95% | 1016.7 hPa | 0 mm | - | 29 W/m² | - |
| 1777636107 | 1.67° C | 96% | 1016.7 hPa | 0 mm | - | 26 W/m² | - |
| 1777635802 | 1.67° C | 96% | 1016.5 hPa | 0 mm | - | 22 W/m² | - |
| 1777635499 | 1.67° C | 96% | 1016.4 hPa | 0 mm | - | 22 W/m² | - |
| 1777635195 | 1.11° C | 96% | 1016.3 hPa | 0 mm | - | 20 W/m² | - |
* Rain latest hour (hover to see other rain measurements)
** Current wind speed in m/s (hover to see current wind gust speed)